Regional Weather Roundup
Issued by NWS

Home | Current Version | Previous Version | Graphics & Text | Print | Product List | Glossary On
Versions: 1 2 3 4 5 6 7 8 9 10 11 12 13 14 15 16 17 18 19 20 21 22 23 24 25 26 27 28 29 30 31 32 33 34 35 36 37 38 39 40 41 42 43 44 45 46 47 48 49 50
000
ASUS43 KDMX 250501
RWRIA

WEATHER ROUNDUP FOR IOWA
NATIONAL WEATHER SERVICE DES MOINES IA
1200 AM CDT TUE APR 25 2017

NOTE: "FAIR" INDICATES FEW OR NO CLOUDS BELOW 12,000 FEET WITH NO
SIGNIFICANT WEATHER AND/OR OBSTRUCTIONS TO VISIBILITY.

* - THESE STATIONS ARE NOT NWS STATIONS...THUS NOT UNDER NWS
QUALITY CONTROL.  THEY ALSO DO NOT REPORT WEATHER SUCH
AS PRECIPITATION OR FOG.

IAZ001>003-012>014-020>022-031>034-043>046-250600-
   NORTHWEST IOWA

CITY           SKY/WX    TMP DP  RH WIND       PRES   REMARKS
CARROLL *      CLOUDY    63  43  48 S10       29.53F
CHEROKEE *     PTCLDY    55  45  68 W3        29.53S
DENISON *      CLOUDY    64  43  45 S15G21    29.53F
LE MARS *      CLOUDY    52  45  76 NW8       29.56R
ORANGE CITY *  PTCLDY    52  46  82 NW10      29.54S
SHELDON *      PTCLDY    52  43  71 NW14      29.52R
SIOUX CITY     MOCLDY    52  43  71 NW14      29.55R
SPENCER        CLOUDY    62  42  47 S12       29.51F
STORM LAKE *   MOCLDY    61  41  48 SW12      29.53R
$$

IAZ055>058-069>071-079>083-090>094-250600-
   SOUTHWEST IOWA

CITY           SKY/WX    TMP DP  RH WIND       PRES   REMARKS
ATLANTIC *     CLEAR     63  43  48 S10       29.55S
AUDUBON *      MOCLDY    64  43  45 S9        29.55F
CLARINDA *     CLEAR     63  43  48 S5        29.58F
COUNCIL BLFS * CLEAR     61  45  55 S13       29.53F
CRESTON *      CLOUDY    63  39  42 S13       29.59S
HARLAN  *      CLOUDY    63  43  48 S10       29.56F
LAMONI         CLOUDY    63  37  38 S10       29.60S
RED OAK *      CLEAR     63  43  48 S10       29.55S
SHENANDOAH *   CLOUDY    59  43  55 SE8       29.55F
$$

IAZ047>049-059>061-072>074-084-250600-
   CENTRAL IOWA

CITY           SKY/WX    TMP DP  RH WIND       PRES   REMARKS
AMES           CLOUDY    60  36  40 SE10      29.57F
ANKENY *       CLOUDY    63  36  36 S6        29.59S
BOONE *        CLOUDY    61  36  39 MISG      29.56S
CHARITON *     CLOUDY    59  37  44 S9        29.60S
DES MOINES     CLOUDY    64  35  34 S8        29.58F
GRINNELL*      CLEAR     59  32  35 SE13      29.62F
KNOXVILLE *    CLOUDY    59  36  41 SE7       29.58F
MARSHALLTOWN   MOCLDY    59  33  37 SE13      29.58F
NEWTON *       CLOUDY    59  34  38 S13       29.59F
PELLA *        CLOUDY    60  32  34 SE8       29.61F
PERRY *        CLOUDY    61  35  38 S9        29.56F
$$

IAZ004>006-015-016-023>025-035-036-250600-
   NORTH CENTRAL IOWA

CITY           SKY/WX    TMP DP  RH WIND       PRES   REMARKS
ALGONA *       CLOUDY    63  36  36 S13       29.53F
CLARION *      CLOUDY    61  34  36 SE13      29.55F
ESTHERVILLE    CLOUDY    60  41  49 S13       29.51F
FORT DODGE *   CLOUDY    64  34  32 S8        29.56S
MASON CITY     CLOUDY    58  33  39 SE13      29.58F
WEBSTER CITY * CLOUDY    61  34  36 SE10      29.54F
IOWA FALLS *   CLOUDY    57  35  42 SE9       29.59F
$$

IAZ007>011-017>019-026>030-037>042-050>054-066-250600-
   NORTHEAST IOWA

CITY           SKY/WX    TMP DP  RH WIND       PRES   REMARKS
CEDAR RAPIDS   CLEAR     57  33  40 SE8       29.63F
CHARLES CITY * CLOUDY    59  30  33 SE12      29.60F
CLINTON *      PTCLDY    59  33  37 S9        29.70R
DECORAH *      PTCLDY    59  32  36 SE12      29.62S
DUBUQUE        CLEAR     58  32  37 SE13      29.68S
MONTICELLO *   CLEAR     55  32  41 SE7       29.65F
WATERLOO       CLEAR     62  29  28 S15       29.60F
$$

IAZ064-065-067-068-078-250600-
   EAST CENTRAL IOWA

CITY           SKY/WX    TMP DP  RH WIND       PRES   REMARKS
DAVENPORT      PTCLDY    60  28  29 S10       29.69S
IOWA CITY      CLEAR     56  34  43 SE5       29.66F
MUSCATINE *    CLEAR     52  34  50 NE3       29.67F
QUAD CITIES    PTCLDY    59  31  34 S3        29.68S
$$

IAZ062-063-075>077-085>089-095>099-250600-
   SOUTHEAST IOWA

CITY           SKY/WX    TMP DP  RH WIND       PRES   REMARKS
BURLINGTON     CLEAR     59  35  40 S7        29.67S
FAIRFIELD *    CLEAR     59  30  33 SE10      29.63F
FORT MADISON * CLEAR     61  32  33 S7        29.67F
KEOKUK *       CLEAR     59  32  36 SE7       29.66F
OSKALOOSA *      N/A     53  33  46 SE12      29.62F
OTTUMWA        CLEAR     61  31  32 S13       29.62F
WASHINGTON *   CLEAR     55  32  41 SE10      29.65F
$$

ABBREVIATIONS USED IN REMARKS
   TC - TEMPERATURES IN CELSIUS
  WCI - WIND CHILL INDEX
   HX - HEAT INDEX
  VSB - VISIBILITY
$$




USA.gov is the U.S. government's official web portal to all federal, state and local government web resources and services.